Regional Weather Roundup
Issued by NWS

Home | Current Version | Previous Version | Text Only | Print | Product List | Glossary Off
Versions: 1 2 3 4 5 6 7 8 9 10 11 12 13 14 15 16 17 18 19 20 21 22 23 24 25 26 27 28 29 30 31 32 33 34 35 36 37 38 39 40 41 42 43 44 45 46 47 48 49 50

000
ASUS43 KDTX 232310
RWRMI
MICHIGAN HOURLY REGIONAL WEATHER ROUNDUP
NATIONAL WEATHER SERVICE DETROIT/PONTIAC MI
700 PM EDT WED JUL 23 2014

NOTE: "FAIR" INDICATES FEW OR NO CLOUDS BELOW 12,000 FEET WITH NO
SIGNIFICANT WEATHER AND/OR OBSTRUCTION TO VISIBILITY.

MIZ047>049-052>055-059>063-066>070-074>076-081>083-240000-
SOUTHEAST LOWER MICHIGAN

CITY           SKY/WX    TMP DP  RH WIND       PRES   REMARKS
ADRIAN         MOSUNNY   73  56  54 N8        30.05S
ALMA           MOSUNNY   68  54  60 N13G18    30.09S
ANN ARBOR      MOSUNNY   73  54  51 N10       30.04S
BAD AXE        SUNNY     65  49  56 N10       30.10R
CARO           PTSUNNY   67  56  67 NE6       30.08R
DETROIT CITY   MOSUNNY   72  54  53 N10       30.04S
DETROIT        PTSUNNY   71  55  56 N13       30.04S
FLINT          PTSUNNY   74  55  51 N13       30.06S
GROSSE ILE     MOSUNNY   70  55  60 N8        30.03S
HILLSDALE      SUNNY     73  57  57 N7        30.06S
HOWELL         CLOUDY    69  56  62 NE5       30.05F

CITY           SKY/WX    TMP DP  RH WIND       PRES   REMARKS
JACKSON        CLOUDY    74  58  57 N7        30.05S
LAMBERTVILLE   CLOUDY    72  55  56 N6        30.05R
LANSING        MOSUNNY   72  55  55 N9        30.07S
LAPEER         MOCLDY    67  55  64 NE10      30.07R
MASON          CLOUDY    70  57  63 NE7       30.06S
MONROE         PTSUNNY   72  57  60 NE6G16    30.03R
MT. CLEMENS    MOSUNNY   68  55  64 N10       30.04R
PONTIAC        PTSUNNY   71  54  54 N12       30.05S
PORT HOPE        N/A     68  55  63 VRB3      30.08R
PORT HURON     MOSUNNY   64  55  72 N10       30.06S
TRI CITIES     CLOUDY    70  58  65 NE12      30.09R
TROY           PTSUNNY   71  55  55 N8G18     30.06S
SAGINAW HB     MOSUNNY   70  57  64 NE13      30.08R
$$
MIZ043>046-050>051-056>058-064>065-071>073-077>080-240000-
SOUTHWEST LOWER MICHIGAN

CITY           SKY/WX    TMP DP  RH WIND       PRES   REMARKS
BATTLE CREEK   SUNNY     74  53  48 N13       30.07S
BENTON HARBOR  SUNNY     64  55  72 N10G18    30.10F
BIG RAPIDS     CLOUDY    66  52  60 N7G20     30.11F
COLDWATER      MOSUNNY   74  56  52 N9        30.05S
FREMONT        FAIR      69  51  53 NE9       30.10R
HOLLAND        SUNNY     69  58  67 NW8G20    30.10S
GRAND RAPIDS   PTSUNNY   74  56  53 NE13      30.08S
IONIA          MOCLDY    70  55  58 N9        30.08R
KALAMAZOO      MOSUNNY   75  54  47 N10       30.06S
LUDINGTON      PTSUNNY   62  53  72 N12G18    30.15R
MARSHALL       MOSUNNY   72  55  54 N5        30.05F
MOUNT PLEASANT CLOUDY    67  55  66 N6        30.10S
MUSKEGON       PTSUNNY   72  56  57 NW13      30.09S
SOUTH HAVEN    SUNNY     65  58  80 NW14G22   30.10S
$$
MIZ016>042-240000-
NORTHERN LOWER MICHIGAN

CITY           SKY/WX    TMP DP  RH WIND       PRES   REMARKS
ALPENA         MOSUNNY   70  48  45 N15       30.10S
BEAVER ISLAND  SUNNY     68  49  51 N8        30.15S
BELLAIRE       SUNNY     68  48  48 N8G17     30.13S
CADILLAC       CLOUDY    63  53  70 N6        30.13S
CHARLEVOIX     SUNNY     65  55  70 W8        30.17S
FRANKFORT      PTSUNNY   67  51  56 N6        30.15S
GAYLORD        CLOUDY    64  51  62 NW6       30.13S
GRAYLING       MOSUNNY   69  53  55 NW10      30.13S
HARBOR SPRINGS PTSUNNY   70  50  48 N8        30.13S
HOUGHTON LAKE  PTSUNNY   66  54  65 NW8       30.12S
MANISTEE       PTSUNNY   64  54  68 NW9       30.15S
OSCODA         MOSUNNY   69  46  43 N8G20     30.09R
PELLSTON       PTSUNNY   67  50  54 N7        30.14S
ROGERS CITY    CLOUDY    66  54  65 NW9G16    30.12S
TRAVERSE CITY  MOSUNNY   68  47  46 N14       30.13S
$$
MIZ007>008-015-240000-
EASTERN UPPER MICHIGAN

CITY           SKY/WX    TMP DP  RH WIND       PRES   REMARKS
KINROSS        SUNNY     63  48  59 NW21G26   30.14S
MACKINAC ISLAN SUNNY     66  49  54 N14G20    30.13S
NEWBERRY       SUNNY     63  47  54 NW13G22   30.16F
S. S. MARIE    SUNNY     63  48  58 NW13G21   30.14S
MUNISING         N/A     63  47  55 N8        30.20F
$$
MIZ004>006-011>014-085-240000-
CENTRAL UPPER MICHIGAN

CITY           SKY/WX    TMP DP  RH WIND       PRES   REMARKS
MANISTIQUE     SUNNY     68  48  49 N12G18    30.17S
ESCANABA       SUNNY     70  45  40 N12       30.17S
MENOMINEE      SUNNY     70  48  46 E9        30.16F
SAWYER-GWINN   SUNNY     64  45  48 NE12G17   30.21F
$$
MIZ001>003-009>011-084-240000-
WESTERN UPPER MICHIGAN

CITY           SKY/WX    TMP DP  RH WIND       PRES   REMARKS
IRON MOUNTAIN  MOSUNNY   73  45  36 N7        30.17F
HOUGHTON       SUNNY     68  44  42 NW8       30.20F
COPPER HARBOR    N/A     64  54  69 N12       30.19F
$$

ABBREVIATIONS USED IN REMARKS
   TC - TEMPERATURE IN CELSIUS
  WCI - WIND CHILL INDEX
   HX - HEAT INDEX
  VSB - VISIBILITY



USA.gov is the U.S. government's official web portal to all federal, state and local government web resources and services.